• In Germany
  • List of Countries
  • For 7 days
  • Water Temperature
  • Satellite Maps
  • Weather Map
  • Weather Widgets
  • user-avatar
    Login

    Hourly Weather Ngo

    Today, 23 July, Monday

    Time Temperature Precipitation Wind Pressure Humidity
    00:00 +27°C° 0 mm 1 mps 710 mmHg 44%
    01:00 +27°C° 0 mm 1 mps 710 mmHg 46%
    02:00 +26°C° 0 mm 1 mps 710 mmHg 49%
    03:00 +26°C° 0 mm 1 mps 709 mmHg 52%
    04:00 +26°C° 0 mm 2 mps 709 mmHg 55%
    05:00 +26°C° 0 mm 2 mps 710 mmHg 55%
    06:00 +26°C° 0 mm 3 mps 710 mmHg 56%
    07:00 +26°C° 0 mm 3 mps 711 mmHg 57%
    08:00 +28°C° 0 mm 3 mps 711 mmHg 52%
    09:00 +30°C° 0 mm 3 mps 711 mmHg 47%
    10:00 +33°C° 0 mm 3 mps 712 mmHg 42%
    11:00 +34°C° 0 mm 3 mps 711 mmHg 37%
    12:00 +36°C° 0 mm 2 mps 711 mmHg 31%
    13:00 +38°C° 0 mm 2 mps 710 mmHg 25%
    14:00 +37°C° 0 mm 2 mps 710 mmHg 25%
    15:00 +36°C° 0 mm 1 mps 709 mmHg 25%
    16:00 +36°C° 0 mm 1 mps 708 mmHg 25%
    17:00 +34°C° 0 mm 1 mps 708 mmHg 28%
    18:00 +32°C° 0 mm 1 mps 708 mmHg 31%
    19:00 +31°C° 0 mm 2 mps 709 mmHg 33%
    20:00 +30°C° 0 mm 2 mps 709 mmHg 36%
    21:00 +29°C° 0 mm 1 mps 709 mmHg 38%
    22:00 +28°C° 0 mm 1 mps 710 mmHg 40%
    23:00 +28°C° 0 mm 2 mps 710 mmHg 43%

    Tomorrow, 24 July, Tuesday

    Time Temperature Precipitation Wind Pressure Humidity
    00:00 +27°C° 0 mm 2 mps 710 mmHg 46%
    01:00 +27°C° 0 mm 2 mps 710 mmHg 50%
    02:00 +26°C° 0 mm 2 mps 710 mmHg 53%
    03:00 +26°C° 0 mm 2 mps 710 mmHg 57%
    04:00 +25°C° 0 mm 2 mps 710 mmHg 61%
    05:00 +25°C° 0 mm 3 mps 710 mmHg 61%
    06:00 +25°C° 0 mm 3 mps 710 mmHg 62%
    07:00 +25°C° 0 mm 3 mps 711 mmHg 63%
    08:00 +27°C° 0 mm 3 mps 711 mmHg 55%
    09:00 +29°C° 0 mm 3 mps 712 mmHg 47%
    10:00 +31°C° 0 mm 3 mps 712 mmHg 40%
    11:00 +34°C° 0 mm 3 mps 711 mmHg 34%
    12:00 +36°C° 0 mm 2 mps 711 mmHg 29%
    13:00 +38°C° 0 mm 2 mps 710 mmHg 23%
    14:00 +38°C° 0 mm 2 mps 710 mmHg 22%
    15:00 +38°C° 0 mm 2 mps 709 mmHg 21%
    16:00 +38°C° 0 mm 2 mps 708 mmHg 20%
    17:00 +36°C° 0 mm 2 mps 709 mmHg 23%
    18:00 +33°C° 0 mm 1 mps 709 mmHg 26%
    19:00 +31°C° 0 mm 1 mps 709 mmHg 29%
    20:00 +30°C° 0 mm 1 mps 709 mmHg 32%
    21:00 +29°C° 0 mm 2 mps 710 mmHg 34%
    22:00 +28°C° 0 mm 2 mps 710 mmHg 37%
    23:00 +28°C° 0 mm 2 mps 710 mmHg 39%

    Day after tomorrow, 25 July, Wednesday

    Time Temperature Precipitation Wind Pressure Humidity
    00:00 +27°C° 0 mm 2 mps 710 mmHg 42%
    01:00 +26°C° 0 mm 2 mps 710 mmHg 45%
    02:00 +26°C° 0 mm 2 mps 710 mmHg 49%
    03:00 +26°C° 0 mm 3 mps 710 mmHg 52%
    04:00 +25°C° 0 mm 3 mps 709 mmHg 56%
    05:00 +25°C° 0 mm 3 mps 710 mmHg 57%
    06:00 +25°C° 0 mm 3 mps 710 mmHg 59%
    07:00 +24°C° 0 mm 3 mps 711 mmHg 60%
    08:00 +26°C° 0 mm 3 mps 711 mmHg 54%
    09:00 +28°C° 0 mm 3 mps 712 mmHg 48%
    10:00 +30°C° 0 mm 3 mps 713 mmHg 41%
    11:00 +33°C° 0 mm 3 mps 712 mmHg 36%
    12:00 +35°C° 0 mm 2 mps 711 mmHg 32%
    13:00 +37°C° 0 mm 2 mps 711 mmHg 27%
    14:00 +37°C° 0 mm 2 mps 710 mmHg 25%
    15:00 +37°C° 0 mm 2 mps 709 mmHg 23%
    16:00 +38°C° 0 mm 2 mps 709 mmHg 22%
    17:00 +35°C° 0 mm 1 mps 709 mmHg 25%
    18:00 +33°C° 0 mm 1 mps 709 mmHg 28%
    19:00 +31°C° 0 mm 1 mps 709 mmHg 31%
    20:00 +30°C° 0 mm 1 mps 710 mmHg 33%
    21:00 +29°C° 0 mm 2 mps 710 mmHg 34%
    22:00 +29°C° 0 mm 2 mps 711 mmHg 36%
    23:00 +28°C° 0 mm 2 mps 711 mmHg 39%

    26 July, Thursday

    Time Temperature Precipitation Wind Pressure Humidity
    00:00 +28°C° 0 mm 3 mps 710 mmHg 42%
    01:00 +27°C° 0 mm 3 mps 710 mmHg 45%
    02:00 +27°C° 0 mm 3 mps 710 mmHg 49%
    03:00 +26°C° 0 mm 3 mps 710 mmHg 52%
    04:00 +26°C° 0 mm 3 mps 710 mmHg 56%
    05:00 +26°C° 0 mm 3 mps 710 mmHg 57%
    06:00 +25°C° 0 mm 3 mps 711 mmHg 58%
    07:00 +25°C° 0 mm 3 mps 711 mmHg 59%
    08:00 +27°C° 0 mm 3 mps 712 mmHg 53%
    09:00 +29°C° 0 mm 3 mps 712 mmHg 48%
    10:00 +30°C° 0 mm 3 mps 713 mmHg 42%
    11:00 +33°C° 0 mm 3 mps 712 mmHg 38%
    12:00 +34°C° 0 mm 3 mps 711 mmHg 34%
    13:00 +36°C° 0 mm 3 mps 711 mmHg 30%
    14:00 +36°C° 0 mm 3 mps 710 mmHg 29%
    15:00 +36°C° 0 mm 2 mps 710 mmHg 28%
    16:00 +36°C° 0 mm 2 mps 709 mmHg 27%
    17:00 +35°C° 0 mm 2 mps 710 mmHg 30%
    18:00 +34°C° 0 mm 2 mps 710 mmHg 33%
    19:00 +31°C° 0 mm 2 mps 710 mmHg 36%
    20:00 +30°C° 0 mm 2 mps 711 mmHg 38%
    21:00 +30°C° 0 mm 2 mps 711 mmHg 41%
    22:00 +29°C° 0 mm 2 mps 712 mmHg 43%
    23:00 +28°C° 0 mm 3 mps 711 mmHg 44%

    27 July, Friday

    Time Temperature Precipitation Wind Pressure Humidity
    00:00 +28°C° 0 mm 3 mps 711 mmHg 46%
    01:00 +27°C° 0 mm 3 mps 711 mmHg 48%
    02:00 +27°C° 0 mm 3 mps 711 mmHg 49%
    03:00 +26°C° 0 mm 3 mps 710 mmHg 51%
    04:00 +25°C° 0 mm 3 mps 710 mmHg 53%
    05:00 +25°C° 0 mm 3 mps 711 mmHg 54%
    06:00 +25°C° 0 mm 3 mps 711 mmHg 55%
    07:00 +23°C° 0 mm 4 mps 712 mmHg 56%
    08:00 +26°C° 0 mm 3 mps 712 mmHg 51%
    09:00 +28°C° 0 mm 3 mps 712 mmHg 45%
    10:00 +30°C° 0 mm 3 mps 713 mmHg 40%
    11:00 +33°C° 0 mm 3 mps 712 mmHg 36%
    12:00 +35°C° 0 mm 2 mps 712 mmHg 33%
    13:00 +36°C° 0 mm 2 mps 711 mmHg 29%
    14:00 +36°C° 0 mm 2 mps 710 mmHg 28%
    15:00 +36°C° 0 mm 2 mps 710 mmHg 28%
    16:00 +35°C° 0 mm 1 mps 709 mmHg 27%
    17:00 +34°C° 0 mm 1 mps 709 mmHg 30%
    18:00 +33°C° 0 mm 1 mps 710 mmHg 32%
    19:00 +31°C° 0 mm 1 mps 710 mmHg 34%
    20:00 +31°C° 0 mm 1 mps 710 mmHg 36%
    21:00 +30°C° 0 mm 1 mps 711 mmHg 37%
    22:00 +30°C° 0 mm 2 mps 711 mmHg 38%
    23:00 +29°C° 0 mm 2 mps 711 mmHg 39%

    28 July, Saturday

    Time Temperature Precipitation Wind Pressure Humidity
    00:00 +28°C° 0 mm 2 mps 711 mmHg 40%
    01:00 +28°C° 0 mm 2 mps 710 mmHg 42%
    02:00 +27°C° 0 mm 2 mps 710 mmHg 43%
    03:00 +27°C° 0 mm 2 mps 710 mmHg 44%
    04:00 +27°C° 0 mm 3 mps 710 mmHg 45%
    05:00 +26°C° 0 mm 3 mps 710 mmHg 48%
    06:00 +26°C° 0 mm 3 mps 711 mmHg 50%
    07:00 +25°C° 0 mm 3 mps 711 mmHg 52%
    08:00 +27°C° 0 mm 3 mps 712 mmHg 47%
    09:00 +29°C° 0 mm 3 mps 712 mmHg 42%
    10:00 +32°C° 0 mm 4 mps 712 mmHg 38%
    11:00 +33°C° 0 mm 3 mps 712 mmHg 34%
    12:00 +35°C° 0 mm 3 mps 711 mmHg 31%
    13:00 +36°C° 0 mm 3 mps 710 mmHg 28%
    14:00 +36°C° 0 mm 3 mps 710 mmHg 27%
    15:00 +37°C° 0 mm 3 mps 709 mmHg 27%
    16:00 +37°C° 0 mm 2 mps 709 mmHg 26%
    17:00 +35°C° 0 mm 2 mps 709 mmHg 29%
    18:00 +32°C° 0 mm 2 mps 710 mmHg 31%
    19:00 +31°C° 0 mm 2 mps 710 mmHg 34%
    20:00 +30°C° 0 mm 2 mps 710 mmHg 33%
    21:00 +30°C° 0 mm 3 mps 711 mmHg 33%
    22:00 +29°C° 0 mm 3 mps 711 mmHg 33%
    23:00 +28°C° 0 mm 3 mps 711 mmHg 34%
    Show more